Pampa, TX

12:02 PM CST on February 24, 2017 (GMT -0600)
Perry Lefors

Weather History for KPPA - October, 2013

Change the Weather History Date:

Tuesday, October 8, 2013

  Actual Average Record
Temperature  
Mean Temperature 64 °F -  
Max Temperature 79 °F 72 °F 95 °F (1979)
Min Temperature 50 °F 47 °F 30 °F (1970)
Growing Degree Days 14 (Base 50)    
Moisture  
Dew Point 33 °F    
Average Humidity 33    
Maximum Humidity 55    
Minimum Humidity 15    
Precipitation  
Precipitation 0.00 in - - ()
Sea Level Pressure  
Sea Level Pressure 30.00 in    
Wind  
Wind Speed 15 mph (South)    
Max Wind Speed 24 mph    
Max Gust Speed 30 mph    
Visibility 10 miles    
Events      
Averages and records for this station are not official NWS values.
T = Trace of Precipitation, MM = Missing Value Source: NWS Daily Summary

Daily Weather History Graph

Daily Weather History Graph

Search for Another Location

Airport or City:

Trip Planner

Search our weather history database for the weather conditions in past years. The results will help you decide how hot, cold, wet, or windy it might be!

Date:

Astronomy

Oct. 08, 2013 Rise Set
Actual Time 7:44 AM CDT 7:17 PM CDT
Civil Twilight 7:19 AM CDT 7:43 PM CDT
Nautical Twilight 6:49 AM CDT 8:12 PM CDT
Astronomical Twilight 6:20 AM CDT 8:42 PM CDT
Moon 11:33 AM CDT (10/8) 10:03 PM CDT (10/8)
Length of Visible Light 12h 23m
Length of Day
11h 32m
Waxing Crescent, 16% of the Moon is Illuminated
Oct 8
Waxing Crescent
Oct 11
First Quarter
Oct 18
Full
Oct 26
Last Quarter
Nov 3
New

Hourly Weather History & Observations

Time (CDT) Temp. Dew Point Humidity Pressure Visibility Wind Dir Wind Speed Gust Speed Precip Events Conditions
12:15 AM 59.4 °F 35.8 °F 41% 30.11 in 10.0 mi South 15.0 mph - N/A   Clear
12:55 AM 58.1 °F 36.1 °F 44% 30.10 in 10.0 mi South 15.0 mph - N/A   Clear
1:15 AM 57.6 °F 36.1 °F 45% 30.10 in 10.0 mi South 15.0 mph 19.6 mph N/A   Clear
1:55 AM 57.2 °F 36.0 °F 45% 30.09 in 10.0 mi South 15.0 mph 20.7 mph N/A   Clear
2:35 AM 57.2 °F 35.6 °F 44% 30.08 in 10.0 mi South 17.3 mph - N/A   Clear
3:15 AM 56.5 °F 35.8 °F 46% 30.07 in 10.0 mi South 13.8 mph - N/A   Clear
3:35 AM 56.3 °F 35.8 °F 46% 30.07 in 10.0 mi South 13.8 mph - N/A   Clear
3:55 AM 55.8 °F 35.6 °F 47% 30.06 in 10.0 mi South 12.7 mph - N/A   Clear
4:15 AM 54.9 °F 35.2 °F 48% 30.06 in 10.0 mi South 11.5 mph - N/A   Clear
4:35 AM 54.0 °F 35.2 °F 49% 30.06 in 10.0 mi South 10.4 mph - N/A   Clear
4:55 AM 53.8 °F 35.2 °F 50% 30.05 in 10.0 mi South 11.5 mph - N/A   Clear
5:15 AM 53.6 °F 35.1 °F 50% 30.05 in 10.0 mi South 11.5 mph - N/A   Clear
5:35 AM 53.6 °F 34.9 °F 49% 30.05 in 10.0 mi South 10.4 mph - N/A   Clear
6:15 AM 52.2 °F 35.2 °F 53% 30.06 in 10.0 mi SSE 9.2 mph - N/A   Clear
6:35 AM 51.3 °F 35.6 °F 55% 30.06 in 10.0 mi SSE 10.4 mph - N/A   Clear
6:55 AM 51.4 °F 35.2 °F 54% 30.06 in 10.0 mi South 9.2 mph - N/A   Clear
7:35 AM 50.9 °F 35.2 °F 55% 30.05 in 10.0 mi South 10.4 mph - N/A   Clear
7:55 AM 50.9 °F 35.2 °F 55% 30.06 in 10.0 mi South 10.4 mph - N/A   Clear
8:15 AM 52.0 °F 35.6 °F 54% 30.06 in 10.0 mi South 12.7 mph - N/A   Clear
8:35 AM 53.8 °F 35.6 °F 50% 30.06 in 10.0 mi South 13.8 mph - N/A   Clear
9:15 AM 57.2 °F 35.8 °F 45% 30.06 in 10.0 mi South 13.8 mph - N/A   Clear
9:35 AM 59.4 °F 35.4 °F 41% 30.06 in 10.0 mi South 16.1 mph - N/A   Clear
9:55 AM 61.2 °F 34.9 °F 37% 30.06 in 10.0 mi South 15.0 mph 19.6 mph N/A   Clear
10:15 AM 63.5 °F 34.2 °F 33% 30.06 in 10.0 mi SSW 16.1 mph 20.7 mph N/A   Clear
10:35 AM 65.7 °F 34.0 °F 31% 30.06 in 10.0 mi South 17.3 mph - N/A   Clear
10:55 AM 68.2 °F 32.9 °F 27% 30.05 in 10.0 mi SSW 17.3 mph 21.9 mph N/A   Clear
11:15 AM 70.0 °F 32.5 °F 25% 30.05 in 10.0 mi SSW 16.1 mph 23.0 mph N/A   Clear
11:35 AM 71.6 °F 32.5 °F 24% 30.05 in 10.0 mi SSW 18.4 mph 24.2 mph N/A   Clear
11:55 AM 74.1 °F 33.3 °F 22% 30.03 in 10.0 mi SSW 18.4 mph 25.3 mph N/A   Clear
12:15 PM 74.5 °F 33.6 °F 22% 30.03 in 10.0 mi SSW 19.6 mph 26.5 mph N/A   Clear
12:35 PM 75.7 °F 34.0 °F 22% 30.03 in 10.0 mi SSW 21.9 mph 27.6 mph N/A   Clear
12:55 PM 74.1 °F 32.2 °F 21% 30.02 in 10.0 mi SSW 23.0 mph 28.8 mph N/A   Clear
1:15 PM 77.4 °F 31.5 °F 19% 30.01 in 10.0 mi SSW 24.2 mph 29.9 mph N/A   Clear
1:35 PM 78.4 °F 32.0 °F 18% 30.00 in 10.0 mi SSW 23.0 mph 27.6 mph N/A   Clear
1:55 PM 78.3 °F 30.6 °F 18% 29.99 in 10.0 mi SSW 19.6 mph 28.8 mph N/A   Clear
2:15 PM 76.3 °F 31.3 °F 19% 29.98 in 10.0 mi SSW 21.9 mph 25.3 mph N/A   Clear
2:35 PM 78.3 °F 32.2 °F 19% 29.97 in 10.0 mi South 20.7 mph 29.9 mph N/A   Clear
2:55 PM 76.3 °F 32.4 °F 20% 29.96 in 10.0 mi South 20.7 mph 28.8 mph N/A   Clear
3:15 PM 77.5 °F 33.4 °F 20% 29.96 in 10.0 mi South 18.4 mph 25.3 mph N/A   Clear
3:35 PM 77.0 °F 32.7 °F 20% 29.95 in 10.0 mi South 21.9 mph 26.5 mph N/A   Clear
4:15 PM 79.5 °F 32.7 °F 18% 29.95 in 10.0 mi South 17.3 mph - N/A   Clear
4:35 PM 79.2 °F 27.1 °F 15% 29.94 in 10.0 mi SSW 20.7 mph 28.8 mph N/A   Clear
4:55 PM 77.7 °F 27.1 °F 16% 29.94 in 10.0 mi South 19.6 mph 27.6 mph N/A   Clear
5:15 PM 76.5 °F 26.6 °F 16% 29.93 in 10.0 mi SSW 19.6 mph 24.2 mph N/A   Clear
5:35 PM 75.7 °F 31.3 °F 20% 29.92 in 10.0 mi South 16.1 mph - N/A   Clear
5:55 PM 76.3 °F 30.6 °F 19% 29.92 in 10.0 mi South 17.3 mph 28.8 mph N/A   Clear
6:15 PM 74.8 °F 31.1 °F 20% 29.92 in 10.0 mi South 17.3 mph 26.5 mph N/A   Clear
6:35 PM 75.2 °F 31.1 °F 20% 29.92 in 10.0 mi South 17.3 mph 23.0 mph N/A   Clear
6:55 PM 73.6 °F 31.5 °F 21% 29.92 in 10.0 mi South 18.4 mph 24.2 mph N/A   Clear
7:15 PM 72.3 °F 30.2 °F 21% 29.93 in 10.0 mi South 15.0 mph 21.9 mph N/A   Clear
7:35 PM 70.2 °F 31.1 °F 24% 29.93 in 10.0 mi South 17.3 mph 20.7 mph N/A   Clear
7:55 PM 69.8 °F 31.6 °F 24% 29.92 in 10.0 mi South 16.1 mph 20.7 mph N/A   Clear
8:15 PM 68.5 °F 31.8 °F 26% 29.93 in 10.0 mi South 15.0 mph - N/A   Clear
8:35 PM 66.7 °F 32.2 °F 28% 29.93 in 10.0 mi South 13.8 mph - N/A   Clear
8:55 PM 65.5 °F 32.5 °F 29% 29.94 in 10.0 mi SSE 12.7 mph - N/A   Clear
9:15 PM 64.6 °F 32.4 °F 30% 29.94 in 10.0 mi SSE 13.8 mph - N/A   Clear
9:35 PM 63.5 °F 32.5 °F 31% 29.94 in 10.0 mi SSE 15.0 mph - N/A   Clear
9:55 PM 64.6 °F 32.9 °F 31% 29.94 in 10.0 mi South 18.4 mph 24.2 mph N/A   Clear
10:15 PM 63.9 °F 33.8 °F 33% 29.95 in 10.0 mi South 20.7 mph 25.3 mph N/A   Clear
10:35 PM 63.0 °F 34.3 °F 34% 29.95 in 10.0 mi SSE 17.3 mph - N/A   Clear
10:55 PM 61.7 °F 34.9 °F 37% 29.94 in 10.0 mi SSE 18.4 mph 23.0 mph N/A   Clear
11:15 PM 60.3 °F 35.6 °F 40% 29.95 in 10.0 mi SSE 16.1 mph - N/A   Clear
11:35 PM 59.4 °F 36.0 °F 42% 29.94 in 10.0 mi SSE 16.1 mph - N/A   Clear
11:55 PM 59.9 °F 35.6 °F 40% 29.94 in 10.0 mi South 17.3 mph - N/A   Clear